| time (UTC) | temp F | wind direction | speed MPH | gust MPH | rain 1hr in | rain 24hr in | rain mn in | humidity % | barometer mb |
| 20260506062230 | 55 | 104 | 8.0 | 14.0 | 0.08 | 3.90 | 0.17 | 98 | 1008.8 |
| 20260506061723 | 55 | 130 | 5.0 | 11.0 | 0.08 | 3.90 | 0.17 | 98 | 1008.9 |
| 20260506061237 | 55 | 153 | 5.0 | 11.0 | 0.12 | 3.90 | 0.17 | 98 | 1008.9 |
| 20260506060745 | 55 | 101 | 5.0 | 11.0 | 0.12 | 3.90 | 0.17 | 98 | 1008.9 |
| 20260506060227 | 54 | 101 | 6.0 | 14.0 | 0.12 | 3.90 | 0.17 | 98 | 1008.7 |
| 20260506051246 | 54 | 76 | 7.0 | 12.0 | 0.16 | 3.90 | 0.14 | 98 | 1009.0 |
| 20260506050754 | 54 | 115 | 7.0 | 12.0 | 0.16 | 3.90 | 0.14 | 98 | 1009.1 |
| 20260506050227 | 54 | 115 | 6.0 | 12.0 | 0.16 | 3.90 | 0.14 | 98 | 1009.3 |
| 20260506044738 | 54 | 129 | 4.0 | 9.0 | 0.16 | 3.90 | 0.14 | 98 | 1009.3 |
| 20260506044249 | 54 | 98 | 2.0 | 9.0 | 0.12 | 3.86 | 0.13 | 98 | 1009.4 |
| 20260506043732 | 54 | 133 | 4.0 | 10.0 | 0.12 | 3.86 | 0.13 | 98 | 1009.5 |
| 20260506043222 | 54 | 132 | 5.0 | 12.0 | 0.12 | 3.86 | 0.13 | 98 | 1009.5 |
| 20260506042734 | 54 | 134 | 4.0 | 12.0 | 0.08 | 3.82 | 0.13 | 98 | 1009.4 |
| 20260506042244 | 54 | 128 | 3.0 | 9.0 | 0.08 | 3.78 | 0.12 | 98 | 1009.5 |
| 20260506041728 | 54 | 121 | 5.0 | 9.0 | 0.08 | 3.78 | 0.12 | 98 | 1009.4 |
| 20260506041222 | 54 | 105 | 3.0 | 8.0 | 0.08 | 3.74 | 0.11 | 98 | 1009.7 |
| 20260506040730 | 54 | 111 | 4.0 | 10.0 | 0.12 | 3.74 | 0.11 | 98 | 1009.6 |
| 20260506040244 | 54 | 128 | 5.0 | 10.0 | 0.12 | 3.74 | 0.11 | 98 | 1009.6 |
| 20260506035729 | 54 | 139 | 5.0 | 10.0 | 0.12 | 3.74 | 0.11 | 98 | 1009.6 |
| 20260506035220 | 54 | 107 | 4.0 | 10.0 | 0.12 | 3.74 | 0.11 | 98 | 1009.6 |
| 20260506034733 | 54 | 136 | 3.0 | 12.0 | 0.12 | 3.74 | 0.11 | 98 | 1009.6 |
| 20260506034230 | 54 | 101 | 5.0 | 8.0 | 0.16 | 3.74 | 0.11 | 98 | 1009.5 |
| 20260506033724 | 54 | 175 | 4.0 | 9.0 | 0.16 | 3.74 | 0.11 | 98 | 1009.6 |
| 20260506033238 | 54 | 112 | 3.0 | 9.0 | 0.20 | 3.74 | 0.11 | 98 | 1009.5 |
| 20260506032722 | 54 | 119 | 3.0 | 7.0 | 0.20 | 3.74 | 0.11 | 98 | 1009.6 |
| 20260506032234 | 54 | 142 | 4.0 | 9.0 | 0.16 | 3.70 | 0.10 | 98 | 1009.5 |
| 20260506031728 | 54 | 105 | 5.0 | 9.0 | 0.16 | 3.70 | 0.10 | 98 | 1009.5 |
| 20260506031232 | 55 | 134 | 5.0 | 9.0 | 0.12 | 3.66 | 0.09 | 98 | 1009.5 |
| 20260506030721 | 55 | 136 | 4.0 | 8.0 | 0.08 | 3.62 | 0.09 | 98 | 1009.7 |
| 20260506030233 | 55 | 107 | 4.0 | 7.0 | 0.08 | 3.62 | 0.09 | 98 | 1009.9 |
| 20260506025726 | 55 | 179 | 3.0 | 8.0 | 0.08 | 3.62 | 0.09 | 98 | 1010.0 |
| 20260506025300 | 55 | 130 | 4.0 | 8.0 | 0.08 | 3.62 | 0.09 | 98 | 1010.3 |
| 20260506024752 | 55 | 132 | 2.0 | 7.0 | 0.08 | 3.62 | 0.09 | 98 | 1010.3 |
| 20260506024229 | 55 | 133 | 3.0 | 8.0 | 0.04 | 3.58 | 0.08 | 98 | 1010.3 |
| 20260506023723 | 55 | 111 | 4.0 | 8.0 | 0.04 | 3.58 | 0.08 | 98 | 1010.4 |
| 20260506023225 | 55 | 137 | 4.0 | 8.0 | 0.00 | 3.54 | 0.07 | 98 | 1010.5 |
| 20260506022738 | 55 | 98 | 3.0 | 8.0 | 0.00 | 3.54 | 0.07 | 98 | 1010.5 |
| 20260506022248 | 55 | 93 | 3.0 | 8.0 | 0.00 | 3.54 | 0.07 | 98 | 1010.5 |
| 20260506021721 | 55 | 104 | 4.0 | 9.0 | 0.04 | 3.54 | 0.07 | 98 | 1010.5 |
| 20260506021224 | 55 | 119 | 3.0 | 9.0 | 0.08 | 3.54 | 0.07 | 98 | 1010.6 |
| 20260506020734 | 55 | 132 | 4.0 | 8.0 | 0.20 | 3.54 | 0.07 | 98 | 1010.6 |
| 20260506020305 | 55 | 136 | 4.0 | 10.0 | 0.24 | 3.54 | 0.07 | 98 | 1010.6 |
| 20260506015726 | 55 | 135 | 4.0 | 10.0 | 0.35 | 3.54 | 0.07 | 98 | 1010.6 |
| 20260506015220 | 55 | 116 | 3.0 | 8.0 | 0.35 | 3.54 | 0.07 | 98 | 1010.7 |
| 20260506014726 | 55 | 123 | 3.0 | 8.0 | 0.35 | 3.54 | 0.07 | 98 | 1010.6 |
| 20260506014220 | 55 | 111 | 3.0 | 7.0 | 0.35 | 3.54 | 0.07 | 98 | 1010.6 |
| 20260506013732 | 55 | 117 | 4.0 | 7.0 | 0.35 | 3.54 | 0.07 | 98 | 1010.6 |
| 20260506013245 | 55 | 129 | 3.0 | 7.0 | 0.35 | 3.54 | 0.07 | 98 | 1010.6 |
| 20260506012729 | 55 | 109 | 1.0 | 7.0 | 0.35 | 3.54 | 0.07 | 98 | 1010.6 |
| 20260506012221 | 55 | 125 | 2.0 | 8.0 | 0.35 | 3.54 | 0.07 | 98 | 1010.6 |
| 20260506011725 | 55 | 113 | 5.0 | 8.0 | 0.31 | 3.50 | 0.06 | 98 | 1010.5 |
| 20260506011309 | 55 | 82 | 4.0 | 9.0 | 0.28 | 3.46 | 0.06 | 98 | 1010.7 |
| 20260506010729 | 55 | 140 | 5.0 | 9.0 | 0.16 | 3.35 | 0.03 | 98 | 1010.8 |
| 20260506010222 | 55 | 109 | 3.0 | 8.0 | 0.08 | 3.27 | 0.02 | 98 | 1010.9 |
| 20260506005731 | 55 | 137 | 3.0 | 9.0 | 0.00 | 3.19 | 0.00 | 98 | 1010.8 |
| 20260506005235 | 55 | 125 | 5.0 | 11.0 | 0.00 | 3.19 | 0.00 | 98 | 1010.9 |
| 20260506004748 | 55 | 113 | 6.0 | 11.0 | 0.00 | 3.19 | 0.00 | 98 | 1011.0 |
| 20260506004219 | 55 | 111 | 4.0 | 9.0 | 0.00 | 3.19 | 0.00 | 98 | 1011.2 |
| 20260506003721 | 55 | 145 | 6.0 | 8.0 | 0.00 | 3.19 | 0.00 | 98 | 1011.2 |
| 20260506003224 | 55 | 134 | 2.0 | 7.0 | 0.00 | 3.19 | 0.00 | 98 | 1011.2 |
| 20260506002807 | 55 | 146 | 3.0 | 8.0 | 0.00 | 3.19 | 0.00 | 98 | 1011.3 |
| 20260506002228 | 55 | 120 | 3.0 | 8.0 | 0.00 | 3.19 | 0.00 | 98 | 1011.3 |
| 20260506001721 | 55 | 109 | 2.0 | 6.0 | 0.00 | 3.19 | 0.00 | 98 | 1011.3 |
| 20260506001253 | 55 | 108 | 2.0 | 7.0 | 0.00 | 3.19 | 0.00 | 98 | 1011.4 |
| 20260506000741 | 55 | 97 | 3.0 | 7.0 | 0.00 | 3.19 | 0.00 | 98 | 1011.5 |
| 20260506000232 | 55 | 99 | 3.0 | 4.0 | 0.00 | 3.19 | 0.00 | 98 | 1011.5 |
| 20260505235727 | 55 | 107 | 2.0 | 4.0 | 0.00 | 3.19 | 0.00 | 98 | 1011.6 |
| 20260505235255 | 54 | 139 | 1.0 | 4.0 | 0.00 | 3.19 | 0.00 | 98 | 1011.7 |
| 20260505234749 | 54 | 126 | 2.0 | 4.0 | 0.00 | 3.19 | 0.00 | 98 | 1011.7 |
| 20260505234230 | 54 | 107 | 2.0 | 4.0 | 0.00 | 3.19 | 0.00 | 98 | 1011.8 |
| 20260505233724 | 54 | 148 | 2.0 | 4.0 | 0.00 | 3.19 | 0.00 | 98 | 1011.9 |
| 20260505233238 | 54 | 126 | 2.0 | 4.0 | 0.00 | 3.19 | 0.00 | 98 | 1011.9 |
| 20260505232722 | 54 | 117 | 1.0 | 3.0 | 0.00 | 3.19 | 0.00 | 98 | 1011.9 |
| 20260505232235 | 54 | 126 | 1.0 | 3.0 | 0.00 | 3.19 | 0.00 | 98 | 1011.8 |
| 20260505231728 | 54 | 92 | 2.0 | 3.0 | 0.00 | 3.19 | 0.00 | 98 | 1011.8 |
| 20260505231243 | 54 | 105 | 1.0 | 2.0 | 0.00 | 3.19 | 0.00 | 98 | 1011.8 |
| 20260505230722 | 54 | 99 | 1.0 | 3.0 | 0.00 | 3.19 | 0.00 | 98 | 1012.0 |
| 20260505230236 | 55 | 119 | 1.0 | 3.0 | 0.00 | 3.19 | 0.00 | 98 | 1012.1 |
| 20260505225730 | 54 | 119 | 0.0 | 4.0 | 0.00 | 3.19 | 0.00 | 98 | 1012.1 |
| 20260505225244 | 54 | 65 | 2.0 | 4.0 | 0.00 | 3.19 | 0.00 | 98 | 1012.0 |
| 20260505224749 | 54 | 105 | 1.0 | 3.0 | 0.00 | 3.19 | 0.00 | 98 | 1012.1 |
| 20260505224228 | 54 | 95 | 1.0 | 3.0 | 0.00 | 3.19 | 0.00 | 98 | 1012.1 |
| 20260505223743 | 54 | 107 | 0.0 | 3.0 | 0.00 | 3.19 | 0.00 | 98 | 1012.2 |
| 20260505223228 | 54 | 121 | 1.0 | 3.0 | 0.00 | 3.19 | 0.00 | 98 | 1012.2 |
| 20260505222733 | 54 | 130 | 1.0 | 3.0 | 0.00 | 3.19 | 0.00 | 98 | 1012.3 |
| 20260505222224 | 54 | 111 | 0.0 | 3.0 | 0.00 | 3.19 | 0.00 | 98 | 1012.3 |
| 20260505221732 | 54 | 111 | 2.0 | 3.0 | 0.00 | 3.19 | 0.00 | 98 | 1012.3 |
| 20260505221245 | 54 | 119 | 1.0 | 3.0 | 0.00 | 3.19 | 0.00 | 98 | 1012.3 |
| 20260505220728 | 54 | 117 | 1.0 | 3.0 | 0.00 | 3.19 | 0.00 | 98 | 1012.3 |
| 20260505220241 | 54 | 134 | 2.0 | 3.0 | 0.00 | 3.19 | 0.00 | 98 | 1012.3 |
| 20260505215725 | 54 | 119 | 0.0 | 3.0 | 0.00 | 3.19 | 0.64 | 97 | 1012.3 |
| 20260505215238 | 54 | 113 | 2.0 | 3.0 | 0.00 | 3.19 | 0.64 | 97 | 1012.4 |
| 20260505214752 | 54 | 110 | 1.0 | 7.0 | 0.00 | 3.19 | 0.64 | 97 | 1012.4 |
| 20260505214239 | 54 | 98 | 3.0 | 7.0 | 0.00 | 3.19 | 0.64 | 97 | 1012.6 |
| 20260505213746 | 54 | 106 | 2.0 | 7.0 | 0.00 | 3.19 | 0.64 | 97 | 1012.6 |
| 20260505213229 | 54 | 86 | 3.0 | 7.0 | 0.00 | 3.19 | 0.64 | 97 | 1012.7 |
| 20260505212811 | 54 | 141 | 3.0 | 7.0 | 0.00 | 3.19 | 0.64 | 97 | 1012.7 |
| 20260505212234 | 54 | 89 | 1.0 | 4.0 | 0.00 | 3.19 | 0.64 | 97 | 1012.8 |
| 20260505211727 | 54 | 117 | 3.0 | 6.0 | 0.04 | 3.19 | 0.64 | 97 | 1012.8 |
| 20260505211256 | 54 | 96 | 3.0 | 6.0 | 0.04 | 3.19 | 0.64 | 97 | 1012.9 |
| 20260505210724 | 54 | 112 | 2.0 | 4.0 | 0.04 | 3.19 | 0.64 | 97 | 1012.8 |
| 20260505210238 | 54 | 105 | 2.0 | 5.0 | 0.04 | 3.19 | 0.64 | 97 | 1012.9 |
| 20260505205742 | 54 | 95 | 2.0 | 5.0 | 0.08 | 3.19 | 0.64 | 97 | 1012.9 |
| 20260505205234 | 54 | 108 | 2.0 | 4.0 | 0.08 | 3.19 | 0.64 | 97 | 1012.9 |
| 20260505204728 | 54 | 136 | 2.0 | 5.0 | 0.12 | 3.19 | 0.64 | 97 | 1013.0 |
| 20260505204258 | 54 | 113 | 3.0 | 5.0 | 0.16 | 3.19 | 0.64 | 100 | 1013.0 |
| 20260505203750 | 54 | 134 | 3.0 | 6.0 | 0.16 | 3.19 | 0.64 | 98 | 1013.0 |
| 20260505203243 | 55 | 115 | 2.0 | 4.0 | 0.16 | 3.19 | 0.64 | 98 | 1012.9 |
| 20260505202734 | 54 | 136 | 1.0 | 3.0 | 0.16 | 3.19 | 0.64 | 98 | 1012.9 |
| 20260505202245 | 54 | 130 | 0.0 | 2.0 | 0.16 | 3.19 | 0.64 | 98 | 1013.0 |
| 20260505201757 | 54 | 130 | 0.0 | 3.0 | 0.12 | 3.15 | 0.63 | 100 | 1013.0 |
| 20260505201222 | 54 | 117 | 2.0 | 3.0 | 0.12 | 3.15 | 0.63 | 100 | 1013.1 |
| 20260505200726 | 54 | 119 | 1.0 | 2.0 | 0.12 | 3.15 | 0.63 | 100 | 1013.0 |
| 20260505200243 | 54 | 127 | 0.0 | 0.0 | 0.12 | 3.15 | 0.63 | 97 | 1013.0 |
| 20260505195730 | 54 | 151 | 0.0 | 3.0 | 0.08 | 3.11 | 0.62 | 97 | 1012.9 |
| 20260505195231 | 54 | 119 | 2.0 | 3.0 | 0.08 | 3.11 | 0.62 | 97 | 1012.8 |
| 20260505194722 | 54 | 134 | 1.0 | 4.0 | 0.04 | 3.07 | 0.61 | 97 | 1012.8 |
| 20260505194233 | 54 | 107 | 2.0 | 4.0 | 0.00 | 3.03 | 0.61 | 97 | 1012.8 |
| 20260505193722 | 54 | 105 | 2.0 | 4.0 | 0.00 | 3.03 | 0.61 | 97 | 1012.8 |
| 20260505193224 | 54 | 105 | 2.0 | 4.0 | 0.00 | 3.03 | 0.61 | 97 | 1012.7 |
| 20260505192805 | 54 | 125 | 2.0 | 3.0 | 0.00 | 3.03 | 0.61 | 97 | 1012.8 |
| 20260505192225 | 54 | 112 | 1.0 | 4.0 | 0.04 | 3.03 | 0.61 | 97 | 1012.7 |
| 20260505191756 | 54 | 99 | 2.0 | 6.0 | 0.04 | 3.03 | 0.61 | 97 | 1012.6 |
| 20260505191249 | 54 | 95 | 1.0 | 4.0 | 0.04 | 3.03 | 0.61 | 97 | 1012.7 |
| 20260505190746 | 54 | 97 | 2.0 | 4.0 | 0.04 | 3.03 | 0.61 | 97 | 1012.6 |
| 20260505190229 | 54 | 107 | 3.0 | 7.0 | 0.04 | 3.03 | 0.61 | 97 | 1012.6 |
| 20260505185721 | 54 | 91 | 2.0 | 7.0 | 0.04 | 3.03 | 0.61 | 97 | 1012.4 |
| 20260505185232 | 54 | 123 | 3.0 | 6.0 | 0.04 | 3.03 | 0.61 | 97 | 1012.4 |
| 20260505184745 | 54 | 121 | 3.0 | 6.0 | 0.04 | 3.03 | 0.61 | 97 | 1012.3 |
| 20260505184228 | 54 | 121 | 3.0 | 8.0 | 0.04 | 3.03 | 0.61 | 97 | 1012.4 |
| 20260505183722 | 54 | 95 | 4.0 | 10.0 | 0.08 | 3.03 | 0.61 | 97 | 1012.4 |
| 20260505183235 | 54 | 111 | 4.0 | 10.0 | 0.08 | 3.03 | 0.61 | 97 | 1012.4 |
| 20260505182747 | 54 | 137 | 3.0 | 8.0 | 0.08 | 3.03 | 0.61 | 97 | 1012.4 |
| 20260505182231 | 54 | 101 | 5.0 | 8.0 | 0.12 | 2.99 | 0.60 | 97 | 1012.4 |
| 20260505181724 | 54 | 130 | 3.0 | 8.0 | 0.20 | 2.99 | 0.60 | 97 | 1012.5 |
| 20260505181259 | 54 | 105 | 6.0 | 8.0 | 0.20 | 2.99 | 0.60 | 97 | 1012.5 |
| 20260505180747 | 54 | 117 | 3.0 | 7.0 | 0.24 | 2.99 | 0.60 | 97 | 1012.5 |
| 20260505180232 | 54 | 90 | 3.0 | 7.0 | 0.24 | 2.99 | 0.60 | 97 | 1012.5 |
| 20260505175725 | 54 | 116 | 3.0 | 7.0 | 0.24 | 2.99 | 0.60 | 97 | 1012.4 |
| 20260505175239 | 54 | 103 | 3.0 | 7.0 | 0.24 | 2.99 | 0.60 | 97 | 1012.4 |
| 20260505174741 | 54 | 105 | 1.0 | 4.0 | 0.24 | 2.99 | 0.60 | 97 | 1012.4 |
| 20260505174234 | 54 | 83 | 1.0 | 5.0 | 0.28 | 2.99 | 0.60 | 97 | 1012.4 |
| 20260505173728 | 54 | 82 | 2.0 | 5.0 | 0.24 | 2.95 | 0.59 | 97 | 1012.4 |
| 20260505173241 | 54 | 55 | 2.0 | 6.0 | 0.24 | 2.95 | 0.59 | 97 | 1012.4 |
| 20260505172744 | 54 | 158 | 2.0 | 8.0 | 0.20 | 2.91 | 0.58 | 97 | 1012.5 |
| 20260505172237 | 54 | 99 | 4.0 | 8.0 | 0.16 | 2.87 | 0.57 | 97 | 1012.4 |
| 20260505171731 | 54 | 105 | 4.0 | 8.0 | 0.12 | 2.80 | 0.56 | 97 | 1012.6 |
| 20260505171244 | 54 | 107 | 5.0 | 8.0 | 0.16 | 2.80 | 0.56 | 97 | 1012.5 |
| 20260505170724 | 54 | 98 | 4.0 | 7.0 | 0.12 | 2.76 | 0.55 | 97 | 1012.5 |
| 20260505170235 | 54 | 128 | 3.0 | 6.0 | 0.16 | 2.76 | 0.55 | 97 | 1012.4 |
| 20260505165727 | 54 | 128 | 3.0 | 7.0 | 0.20 | 2.76 | 0.55 | 97 | 1012.4 |
| 20260505165236 | 54 | 100 | 3.0 | 7.0 | 0.24 | 2.76 | 0.55 | 97 | 1012.4 |
| 20260505164719 | 54 | 104 | 3.0 | 8.0 | 0.28 | 2.72 | 0.54 | 97 | 1012.6 |
| 20260505164231 | 54 | 94 | 4.0 | 9.0 | 0.28 | 2.72 | 0.54 | 97 | 1012.5 |
| 20260505163725 | 54 | 113 | 5.0 | 9.0 | 0.31 | 2.72 | 0.54 | 97 | 1012.5 |
| 20260505163259 | 54 | 130 | 4.0 | 9.0 | 0.35 | 2.72 | 0.54 | 97 | 1012.5 |
| 20260505162750 | 54 | 103 | 5.0 | 9.0 | 0.35 | 2.72 | 0.54 | 97 | 1012.6 |
| 20260505162229 | 54 | 109 | 4.0 | 9.0 | 0.39 | 2.72 | 0.54 | 97 | 1012.6 |
| 20260505161722 | 54 | 98 | 3.0 | 9.0 | 0.35 | 2.68 | 0.54 | 97 | 1012.6 |
| 20260505161235 | 54 | 84 | 3.0 | 9.0 | 0.31 | 2.64 | 0.53 | 97 | 1012.6 |
| 20260505160742 | 54 | 96 | 5.0 | 9.0 | 0.31 | 2.64 | 0.53 | 97 | 1012.6 |
| 20260505160226 | 54 | 68 | 4.0 | 9.0 | 0.28 | 2.60 | 0.52 | 97 | 1012.6 |
| 20260505153235 | 55 | 103 | 2.0 | 7.0 | 0.08 | 2.36 | 0.47 | 96 | 1012.7 |
| 20260505152728 | 55 | 88 | 4.0 | 8.0 | 0.08 | 2.36 | 0.47 | 96 | 1012.8 |
| 20260505152241 | 55 | 82 | 3.0 | 8.0 | 0.04 | 2.32 | 0.46 | 96 | 1012.7 |
| 20260505151724 | 55 | 57 | 4.0 | 9.0 | 0.04 | 2.32 | 0.46 | 96 | 1012.7 |
| 20260505151233 | 55 | 90 | 4.0 | 9.0 | 0.04 | 2.32 | 0.46 | 96 | 1012.8 |
| 20260505150722 | 55 | 78 | 4.0 | 7.0 | 0.04 | 2.32 | 0.46 | 96 | 1012.9 |
| 20260505150255 | 55 | 87 | 4.0 | 8.0 | 0.04 | 2.32 | 0.46 | 96 | 1012.8 |
| 20260505140228 | 55 | 88 | 2.0 | 7.0 | 0.00 | 2.28 | 0.46 | 96 | 1013.1 |
| 20260505130228 | 54 | 123 | 1.0 | 4.0 | 0.08 | 2.28 | 0.46 | 96 | 1013.4 |
| 20260505124738 | 54 | 93 | 4.0 | 7.0 | 0.12 | 2.24 | 0.45 | 96 | 1013.6 |
| 20260505124222 | 54 | 113 | 4.0 | 7.0 | 0.12 | 2.24 | 0.45 | 96 | 1013.6 |
| 20260505123736 | 54 | 118 | 3.0 | 7.0 | 0.16 | 2.24 | 0.45 | 96 | 1013.5 |
| 20260505123229 | 54 | 94 | 2.0 | 4.0 | 0.16 | 2.24 | 0.45 | 96 | 1013.4 |
| 20260505122734 | 54 | 119 | 2.0 | 3.0 | 0.20 | 2.24 | 0.45 | 96 | 1013.3 |
| 20260505122246 | 54 | 118 | 1.0 | 3.0 | 0.20 | 2.24 | 0.45 | 95 | 1013.4 |
| 20260505121739 | 55 | 100 | 0.0 | 2.0 | 0.24 | 2.24 | 0.45 | 96 | 1013.4 |
| 20260505121232 | 55 | 120 | 0.0 | 2.0 | 0.20 | 2.20 | 0.44 | 96 | 1013.3 |
| 20260505120817 | 55 | 223 | 0.0 | 2.0 | 0.20 | 2.20 | 0.44 | 96 | 1013.4 |
| 20260505120245 | 55 | 223 | 1.0 | 2.0 | 0.24 | 2.20 | 0.44 | 96 | 1013.7 |
| 20260505115736 | 55 | 223 | 0.0 | 2.0 | 0.24 | 2.20 | 0.44 | 96 | 1013.4 |
| 20260505115249 | 55 | 223 | 0.0 | 2.0 | 0.24 | 2.17 | 0.43 | 96 | 1013.4 |
| 20260505114730 | 55 | 223 | 0.0 | 2.0 | 0.20 | 2.13 | 0.43 | 96 | 1013.3 |
| 20260505114224 | 55 | 223 | 0.0 | 4.0 | 0.24 | 2.13 | 0.43 | 96 | 1013.4 |
| 20260505113730 | 55 | 263 | 3.0 | 4.0 | 0.20 | 2.09 | 0.42 | 96 | 1013.5 |
| 20260505113243 | 55 | 202 | 3.0 | 5.0 | 0.24 | 2.09 | 0.42 | 96 | 1013.7 |
| 20260505112734 | 55 | 220 | 3.0 | 5.0 | 0.20 | 2.05 | 0.41 | 96 | 1013.5 |
| 20260505112239 | 55 | 219 | 3.0 | 5.0 | 0.20 | 2.05 | 0.41 | 95 | 1013.7 |
| 20260505111732 | 55 | 229 | 2.0 | 4.0 | 0.20 | 2.01 | 0.40 | 95 | 1013.7 |
| 20260505111225 | 55 | 237 | 3.0 | 4.0 | 0.24 | 2.01 | 0.40 | 95 | 1013.7 |
| 20260505110752 | 55 | 227 | 1.0 | 3.0 | 0.24 | 2.01 | 0.40 | 96 | 1013.7 |
| 20260505110240 | 55 | 284 | 0.0 | 1.0 | 0.24 | 1.97 | 0.39 | 95 | 1013.7 |
| 20260505101730 | 55 | 346 | 2.0 | 4.0 | 0.24 | 1.81 | 0.36 | 95 | 1013.7 |
| 20260505101221 | 55 | 315 | 3.0 | 4.0 | 0.20 | 1.77 | 0.35 | 95 | 1013.7 |
| 20260505100729 | 55 | 344 | 3.0 | 5.0 | 0.20 | 1.77 | 0.35 | 95 | 1013.7 |
| 20260505100242 | 55 | 331 | 2.0 | 7.0 | 0.20 | 1.73 | 0.35 | 95 | 1013.7 |
| 20260505095734 | 55 | 342 | 4.0 | 7.0 | 0.24 | 1.73 | 0.35 | 95 | 1013.6 |
| 20260505095228 | 55 | 305 | 2.0 | 4.0 | 0.20 | 1.69 | 0.34 | 95 | 1013.7 |
| 20260505094730 | 55 | 342 | 0.0 | 5.0 | 0.20 | 1.69 | 0.34 | 95 | 1013.8 |
| 20260505094224 | 55 | 295 | 1.0 | 5.0 | 0.16 | 1.65 | 0.33 | 95 | 1013.7 |
| 20260505093732 | 55 | 325 | 2.0 | 6.0 | 0.20 | 1.65 | 0.33 | 95 | 1013.7 |
| 20260505093228 | 55 | 317 | 3.0 | 6.0 | 0.16 | 1.61 | 0.32 | 95 | 1013.7 |
| 20260505092730 | 55 | 346 | 2.0 | 4.0 | 0.16 | 1.61 | 0.32 | 95 | 1013.5 |
| 20260505092243 | 55 | 5 | 2.0 | 6.0 | 0.20 | 1.61 | 0.32 | 94 | 1013.5 |
| 20260505091736 | 55 | 360 | 3.0 | 6.0 | 0.16 | 1.57 | 0.31 | 94 | 1013.4 |
| 20260505091230 | 55 | 355 | 3.0 | 5.0 | 0.20 | 1.57 | 0.31 | 94 | 1013.5 |
| 20260505090739 | 55 | 36 | 2.0 | 5.0 | 0.20 | 1.57 | 0.31 | 94 | 1013.5 |
| 20260505090223 | 55 | 350 | 2.0 | 4.0 | 0.16 | 1.54 | 0.31 | 94 | 1013.7 |
| 20260505085734 | 54 | 344 | 2.0 | 4.0 | 0.16 | 1.50 | 0.30 | 94 | 1013.7 |
| 20260505085246 | 54 | 13 | 2.0 | 5.0 | 0.16 | 1.50 | 0.30 | 94 | 1013.5 |
| 20260505084728 | 54 | 13 | 1.0 | 5.0 | 0.20 | 1.50 | 0.30 | 93 | 1013.4 |
| 20260505084300 | 54 | 44 | 2.0 | 5.0 | 0.20 | 1.50 | 0.30 | 94 | 1013.3 |
| 20260505083748 | 54 | 65 | 3.0 | 8.0 | 0.16 | 1.46 | 0.29 | 94 | 1013.3 |
| 20260505083227 | 54 | 74 | 4.0 | 8.0 | 0.20 | 1.46 | 0.29 | 94 | 1013.2 |
| 20260505082758 | 54 | 44 | 3.0 | 5.0 | 0.20 | 1.46 | 0.29 | 94 | 1013.3 |
| 20260505082222 | 54 | 61 | 2.0 | 6.0 | 0.20 | 1.42 | 0.28 | 94 | 1013.4 |
| 20260505081730 | 54 | 24 | 4.0 | 6.0 | 0.24 | 1.42 | 0.28 | 94 | 1013.3 |
| 20260505081224 | 54 | 74 | 3.0 | 8.0 | 0.24 | 1.38 | 0.28 | 94 | 1013.3 |
| 20260505080733 | 54 | 39 | 5.0 | 8.0 | 0.28 | 1.38 | 0.28 | 94 | 1013.3 |
| 20260505080227 | 54 | 63 | 4.0 | 7.0 | 0.35 | 1.38 | 0.28 | 94 | 1013.3 |
| 20260505075727 | 54 | 21 | 5.0 | 8.0 | 0.39 | 1.34 | 0.27 | 94 | 1013.2 |
| 20260505075220 | 54 | 47 | 3.0 | 7.0 | 0.55 | 1.34 | 0.27 | 94 | 1013.1 |
| 20260505074733 | 54 | 36 | 4.0 | 7.0 | 0.59 | 1.30 | 0.26 | 94 | 1013.1 |
| 20260505074247 | 54 | 49 | 3.0 | 8.0 | 0.67 | 1.30 | 0.26 | 94 | 1013.2 |
| 20260505073731 | 54 | 45 | 4.0 | 8.0 | 0.79 | 1.30 | 0.26 | 94 | 1013.2 |
| 20260505073222 | 54 | 5 | 4.0 | 9.0 | 0.83 | 1.26 | 0.25 | 94 | 1013.1 |
| 20260505072726 | 54 | 355 | 5.0 | 9.0 | 0.87 | 1.22 | 0.25 | 94 | 1013.1 |
| 20260505072219 | 54 | 326 | 4.0 | 8.0 | 0.91 | 1.22 | 0.24 | 93 | 1013.0 |
| 20260505071733 | 54 | 29 | 4.0 | 9.0 | 0.94 | 1.18 | 0.24 | 93 | 1013.0 |
| 20260505071247 | 54 | 38 | 3.0 | 9.0 | 0.94 | 1.14 | 0.23 | 93 | 1013.0 |
| 20260505070727 | 55 | 350 | 3.0 | 8.0 | 0.91 | 1.06 | 0.21 | 93 | 1013.1 |
| 20260505070221 | 55 | 296 | 6.0 | 8.0 | 0.91 | 1.02 | 0.20 | 93 | 1013.1 |
| 20260505065735 | 55 | 342 | 3.0 | 5.0 | 0.87 | 0.94 | 0.19 | 93 | 1013.2 |